Cloud_Cover
8 0 0 12 12 12 0 0 0 0 8 20 12 8 12 24 20 12 24 8 0 0 0 0 0 0 0 0 0 0 0 0 0 0 0 0 0 0 0 0 0 0 0 0 0 0 0 0 0 0 0 0 0 0 0 0 0 0 0 0 0 0 0 0 0 0 0 0 12 12 8 32 36 44 48 32 36 44 44 44 36 36 48 44 44 48 48 36 20 12 20 36 32 36 80 76 56 36 24 24 12 0 0
0 8 12 8 8 8 12 20 12 0 8 24 24 24 48 20 20 24 12 0 0 0 0 0 0 0 0 0 0 0 0 0 0 0 0 0 0 0 0 0 0 0 0 0 0 0 0 0 0 0 0 0 0 0 0 0 0 0 0 0 0 0 0 0 0 0 0 0 8 20 32 32 36 44 44 24 32 44 48 44 32 32 48 48 44 36 48 56 44 24 32 24 24 32 44 44 36 36 44 44 20 0 0
8 0 0 0 0 0 0 8 8 8 20 12 24 36 36 36 32 20 0 0 0 0 0 0 0 0 0 0 0 0 0 0 0 0 0 0 0 0 0 0 0 0 0 0 0 0 0 0 0 0 0 0 0 0 0 0 0 0 0 0 0 0 0 0 0 0 0 0 12 20 12 24 36 36 24 32 36 36 44 36 32 36 48 48 44 36 48 36 32 24 32 44 48 44 32 44 44 36 32 24 24 32 44
0 0 0 8 8 0 0 0 0 8 20 8 0 8 8 44 44 24 0 0 0 0 0 0 0 0 0 0 0 0 0 0 0 0 0 0 0 0 0 0 0 0 0 0 0 0 0 0 0 0 0 0 0 0 0 0 0 0 0 0 0 0 0 0 0 0 0 20 32 24 0 12 24 32 20 20 12 20 32 20 24 36 44 44 44 36 32 12 24 44 56 36 32 36 44 44 36 32 12 8 8 20 32
0 0 0 0 0 0 0 0 20 24 0 8 8 12 36 36 24 20 20 8 0 0 0 0 0 0 0 0 0 0 0 0 0 0 0 0 0 0 0 0 0 0 0 0 0 0 0 0 0 0 0 0 0 0 0 12 20 12 0 0 0 0 0 0 0 0 0 20 24 24 20 24 24 20 12 12 20 32 36 36 36 44 48 56 48 36 20 20 12 20 36 32 36 36 8 24 32 24 12 0 0 0 8
0 0 0 0 0 0 0 0 12 12 8 0 0 0 8 12 32 44 32 12 8 0 0 0 0 0 0 0 0 0 0 0 0 0 0 0 0 0 0 0 0 0 0 0 0 0 0 0 0 0 0 0 0 0 0 0 0 0 0 0 0 0 0 0 0 0 0 0 20 36 44 36 32 20 12 8 20 44 44 36 24 24 36 36 36 32 8 32 36 32 24 32 24 20 36 24 32 44 36 12 0 0 0
0 0 0 0 0 0 0 8 12 20 20 12 8 0 0 0 0 0 0 12 8 0 0 0 0 0 0 0 0 8 32 12 0 0 0 0 0 0 0 0 0 0 0 0 0 0 0 0 0 0 0 0 0 0 0 0 0 0 0 0 0 0 0 0 0 0 0 0 20 36 44 24 12 8 0 32 44 44 44 24 12 12 24 24 48 68 56 32 36 56 56 76 48 20 32 24 24 36 68 32 24 24 8
0 0 0 0 0 0 0 0 0 0 0 0 0 0 0 0 12 20 8 8 12 20 0 0 0 0 0 0 0 0 8 8 8 0 0 0 0 0 0 0 0 0 0 0 0 0 0 0 0 0 0 0 0 0 0 0 0 0 0 0 0 0 0 0 0 0 0 0 0 8 8 8 0 0 8 24 24 24 36 20 8 8 0 20 32 36 32 32 36 48 68 80 64 56 76 36 32 32 24 32 32 32 48
0 0 0 0 0 0 0 0 0 0 8 20 32 32 24 8 20 32 12 8 0 8 20 8 0 0 0 0 8 8 0 8 12 8 0 0 0 0 0 0 0 0 0 0 0 0 0 0 0 0 0 0 0 0 0 0 0 0 0 0 0 8 32 32 12 0 0 8 8 8 0 0 0 0 20 20 20 12 12 8 8 8 0 12 12 8 20 24 24 36 76 56 36 32 44 44 44 48 44 48 48 56 68
0 0 0 0 0 0 0 0 0 0 0 8 8 12 44 12 0 0 0 0 0 8 8 32 20 8 12 12 12 12 12 8 0 0 0 0 0 0 0 0 0 0 0 0 0 0 0 0 0 0 0 0 0 8 24 8 0 0 0 8 0 0 20 8 0 0 0 0 0 8 0 0 0 0 0 12 8 0 8 0 8 8 0 8 12 8 8 8 20 32 44 48 56 64 44 48 48 48 44 44 48 64 76
0 0 0 0 0 0 0 0 0 0 0 0 0 0 0 0 12 24 12 8 20 36 48 32 20 24 32 24 20 20 12 0 0 0 0 0 0 0 0 0 0 0 0 0 0 0 0 0 0 0 0 0 0 0 0 0 0 0 0 0 0 0 0 0 0 0 0 0 0 0 0 0 0 0 0 8 8 0 0 8 8 8 8 44 36 20 12 12 20 24 12 20 24 32 36 44 36 32 24 32 48 68 88
0 0 0 0 0 0 0 0 0 0 0 0 8 8 20 12 20 24 32 32 36 44 56 36 36 44 48 44 32 20 24 8 0 0 0 0 0 0 0 0 0 0 0 0 0 0 8 0 0 0 0 0 0 0 0 0 0 0 0 0 8 8 0 0 0 0 0 0 0 0 8 8 0 0 0 12 12 8 20 24 20 12 0 24 32 32 32 24 12 0 0 8 12 20 20 32 32 36 44 20 20 32 32
0 0 0 0 0 0 0 0 0 0 0 0 8 8 20 12 20 20 24 44 44 32 32 24 36 48 68 44 20 0 0 0 0 0 0 0 0 0 0 0 0 0 0 0 0 8 8 0 0 0 0 0 0 0 0 0 0 0 0 0 0 0 0 0 0 0 8 0 0 8 20 12 12 12 8 8 12 12 32 32 24 12 0 32 32 20 20 12 12 8 8 8 8 8 12 12 12 12 20 12 12 20 36
0 0 0 0 0 0 0 0 0 0 0 0 0 8 20 12 20 24 24 44 36 24 32 32 44 64 56 20 0 0 0 0 0 0 0 0 0 0 0 0 0 0 0 0 8 8 0 0 0 0 0 0 0 0 0 0 0 0 20 0 0 0 0 0 8 20 8 8 12 12 12 32 32 24 12 8 0 8 20 20 12 8 8 24 32 32 32 20 12 8 8 8 8 8 0 12 12 8 8 0 0 8 12
0 0 0 0 0 0 0 0 8 8 8 8 0 0 8 12 20 12 12 44 44 32 24 32 32 32 20 0 0 0 0 0 0 0 0 0 0 0 0 0 0 0 0 8 0 0 0 0 0 0 0 0 0 0 0 0 0 0 12 0 0 0 0 0 24 44 24 12 12 12 12 36 32 24 20 12 8 0 8 8 12 12 0 8 24 36 32 24 20 12 12 20 20 12 8 8 12 8 8 8 8 0 0
8 8 8 0 0 0 0 0 0 0 0 0 0 0 0 8 8 8 8 32 44 36 24 20 8 0 0 0 0 0 0 0 0 0 0 0 0 0 0 0 0 0 0 0 0 0 0 0 0 0 0 0 0 0 0 0 0 0 0 0 0 0 0 0 12 24 32 20 20 20 20 32 36 32 8 12 20 12 8 12 12 12 12 20 32 32 12 32 24 20 32 24 24 24 12 12 12 12 12 24 20 8 0
24 36 32 8 0 0 0 0 0 0 0 0 0 0 0 0 0 0 0 8 12 12 20 0 0 0 0 0 0 0 0 0 0 0 0 0 0 0 0 0 0 0 0 0 0 0 0 0 0 0 0 0 0 0 0 0 0 0 0 0 0 0 0 0 8 8 8 20 24 20 12 24 24 20 8 8 20 20 12 8 12 20 32 36 36 24 12 24 20 12 24 12 20 24 12 12 20 24 32 36 32 24 8
44 76 68 12 0 0 0 0 0 0 0 0 0 0 0 0 0 0 0 0 0 0 0 0 0 0 0 0 0 0 0 0 0 0 0 0 0 0 0 0 0 0 0 0 0 0 0 0 0 0 0 0 0 0 0 0 0 8 0 0 0 0 0 0 0 8 8 12 20 12 0 8 8 0 0 0 8 8 8 8 8 12 32 24 20 12 12 20 12 8 12 8 0 0 8 8 12 24 32 32 32 36 32
32 56 64 20 8 0 0 0 0 0 0 0 0 0 0 0 0 0 0 0 0 0 0 0 0 0 0 0 0 0 0 0 0 0 0 0 0 0 0 0 0 0 0 0 0 0 0 0 0 0 0 0 0 0 0 0 0 0 0 0 0 0 0 0 0 0 0 0 0 0 0 0 0 0 0 0 0 0 0 0 0 0 12 0 0 0 0 0 0 0 0 0 0 0 0 0 0 8 12 12 12 24 36
12 24 44 36 20 0 0 0 0 0 0 0 0 0 8 0 0 0 0 0 0 0 0 0 0 0 0 0 0 0 0 0 0 0 0 0 0 0 0 0 0 0 0 0 0 0 0 0 0 0 0 0 0 0 0 0 0 0 0 0 0 0 0 0 0 0 0 0 0 0 0 0 0 0 0 0 0 0 0 0 0 0 0 0 0 0 0 0 0 0 0 0 0 0 0 0 0 0 0 0 0 0 12
12 24 44 36 20 0 0 0 0 0 0 0 0 0 8 0 0 0 0 0 0 0 0 0 0 0 0 0 0 0 0 0 0 0 0 0 0 0 0 0 0 0 0 0 0 0 0 0 0 0 0 0 0 0 0 0 0 0 0 0 0 0 0 0 0 0 0 0 0 0 0 0 0 0 0 0 0 0 0 0 0 0 0 0 0 0 0 0 0 0 0 0 0 0 0 0 0 0 0 0 0 0 0
8 8 8 8 0 0 0 0 0 0 0 0 0 0 0 0 0 0 8 8 0 0 0 0 0 0 0 0 0 0 0 0 0 0 0 0 0 0 0 0 0 0 0 0 0 0 0 0 0 0 0 0 0 0 0 0 0 0 0 0 0 0 0 0 0 0 0 0 0 0 0 0 0 0 0 0 0 0 0 0 0 0 0 0 8 0 0 0 0 0 0 0 0 0 0 0 0 0 0 0 0 0 0
0 0 0 0 0 0 0 0 0 0 0 0 0 0 0 0 0 0 0 0 0 0 0 0 0 0 0 0 0 0 0 0 0 0 0 0 0 0 0 0 0 0 0 0 0 0 0 0 0 0 0 0 0 0 0 0 0 0 0 0 0 0 0 0 0 0 0 0 0 0 0 0 0 0 0 0 0 0 0 0 0 0 0 0 0 8 0 0 0 0 0 0 0 0 0 12 8 8 0 12 12 0 0
0 0 20 12 8 0 20 20 8 0 0 0 0 0 0 0 0 0 0 0 0 0 0 0 0 0 0 0 0 0 0 0 0 0 0 0 0 0 0 0 0 0 0 0 0 0 0 0 0 0 0 0 0 0 0 0 0 0 0 0 0 0 0 0 0 0 0 0 0 0 0 0 0 0 0 0 0 0 0 0 0 0 0 0 0 0 0 0 0 0 0 8 8 8 12 20 20 12 12 32 36 32 32
0 8 36 56 24 0 8 24 12 0 0 0 0 0 0 0 0 0 0 0 0 0 0 0 0 0 8 0 0 0 0 0 0 0 0 0 0 0 0 0 0 0 0 0 0 0 0 0 0 0 0 0 0 0 0 0 0 0 0 0 0 0 0 0 0 0 0 0 0 0 0 0 0 0 0 0 0 0 0 0 0 0 0 0 0 0 0 0 0 0 0 0 0 8 8 8 12 12 8 36 44 44 32
0 8 24 68 68 36 0 0 0 0 0 8 0 0 0 0 0 0 0 0 0 0 0 0 0 0 8 12 8 8 8 8 8 0 0 0 0 0 0 0 0 0 0 0 0 0 0 0 0 0 0 0 0 0 0 0 0 0 0 0 0 0 0 0 0 0 0 0 0 0 0 0 0 0 0 0 0 0 0 0 0 0 0 0 0 0 0 0 0 0 0 0 0 0 0 0 0 0 0 8 12 12 12
0 0 12 64 80 68 0 0 0 0 0 36 24 0 0 0 0 0 0 0 0 0 0 0 0 0 0 8 12 12 12 12 8 8 8 8 8 8 8 8 0 0 0 0 0 0 0 0 0 0 0 0 0 0 0 8 0 0 0 0 0 0 0 0 0 0 0 0 0 0 0 0 0 0 0 0 0 0 0 0 0 0 0 0 0 0 0 0 0 0 0 0 0 0 0 0 0 0 0 0 0 0 8
0 0 12 12 12 8 0 0 0 0 8 8 0 0 0 0 0 0 0 0 0 0 0 0 0 0 0 0 0 0 12 12 12 8 8 8 0 0 0 0 0 0 0 0 0 0 0 0 0 0 0 0 0 0 0 8 0 0 0 0 0 0 0 0 0 0 0 0 0 0 0 0 0 0 0 0 0 0 0 0 0 0 0 0 0 0 0 0 0 0 0 0 0 0 0 0 0 0 0 0 0 0 0
0 0 8 8 0 0 0 0 0 0 0 0 0 0 0 0 0 0 0 0 0 0 0 0 0 0 0 0 0 0 0 8 12 8 0 0 0 0 0 0 0 0 0 0 0 0 0 0 0 0 0 0 0 0 0 0 0 0 0 0 0 0 0 0 0 0 0 0 0 0 0 0 0 0 0 0 0 0 0 0 0 0 0 0 0 0 0 0 0 0 0 0 0 0 0 0 0 0 0 0 0 0 0
0 0 0 0 8 8 8 8 8 8 8 8 8 8 0 0 0 0 0 0 0 0 0 0 0 0 0 0 0 0 0 8 12 8 8 0 0 0 0 0 0 0 0 0 0 0 0 0 0 0 0 0 0 0 0 0 0 0 0 0 0 0 0 0 0 0 0 0 0 0 0 0 0 0 0 0 0 0 0 0 0 0 0 0 0 0 0 0 0 0 0 0 0 0 0 0 0 0 0 0 0 0 0
0 0 0 0 8 8 12 12 12 12 12 12 12 12 8 0 0 0 0 0 0 0 0 0 0 0 0 0 0 0 0 12 20 20 12 8 12 12 12 8 0 0 0 0 0 0 0 8 8 8 8 8 8 0 0 0 0 0 0 0 0 0 0 0 0 0 0 0 0 0 0 0 0 0 0 0 0 0 0 0 0 0 0 0 0 0 0 0 0 0 0 0 0 0 0 0 0 0 0 0 0 0 0
0 0 8 8 12 12 12 20 20 20 20 20 20 20 8 8 8 8 0 8 0 0 0 0 0 0 0 0 8 0 0 0 8 12 24 24 24 24 24 20 12 12 8 0 0 0 0 0 0 8 8 8 8 8 8 0 0 8 12 0 0 0 0 0 0 0 0 0 0 0 0 0 0 0 0 0 0 0 0 0 0 0 0 0 0 0 0 0 0 0 0 0 0 0 0 0 0 0 0 0 0 0 0
12 12 12 12 12 20 20 20 24 24 24 24 24 24 12 20 20 12 20 20 20 12 12 8 8 8 0 12 12 8 8 8 8 8 8 20 20 20 24 24 24 24 12 12 12 8 0 0 0 0 0 0 0 8 12 8 8 8 8 0 0 0 0 0 0 0 0 0 0 0 0 0 0 0 0 0 0 0 0 0 0 0 0 0 0 0 0 0 0 0 0 0 0 0 0 0 0 0 0 0 8 8 0
20 20 20 20 24 24 24 24 24 24 24 32 32 32 24 32 32 32 32 32 32 32 24 24 20 20 12 20 20 20 12 12 12 8 8 8 8 8 12 8 20 24 20 12 8 0 0 0 0 0 8 8 8 12 12 12 12 12 12 12 8 0 0 0 0 0 0 0 0 0 0 0 0 0 0 0 0 0 0 0 0 0 0 0 0 0 0 0 0 0 0 0 0 0 0 0 0 0 0 0 8 8 8
24 24 32 32 32 32 32 32 32 32 24 32 36 36 36 44 36 36 36 44 44 44 44 36 36 36 36 36 32 32 20 20 12 8 8 0 0 0 8 8 8 8 20 12 8 8 8 8 8 8 12 12 12 12 20 20 12 12 8 8 8 0 0 0 0 0 0 0 0 0 0 0 0 0 0 0 0 0 0 0 0 0 0 0 0 0 0 0 0 0 0 0 0 0 0 0 0 0 0 0 0 8 8
36 44 44 44 44 36 36 36 32 32 32 32 32 36 36 44 48 48 56 56 56 56 48 48 56 56 64 48 36 32 24 12 8 0 0 0 0 0 0 0 0 8 8 8 8 8 8 8 8 12 12 12 12 12 12 12 8 8 8 8 0 0 8 8 0 0 0 0 0 0 0 0 0 0 0 0 0 0 0 0 0 0 8 0 0 0 0 0 0 0 0 0 0 0 0 0 0 0 0 0 0 0 0
48 56 56 56 56 48 48 44 44 44 44 36 36 32 24 32 36 48 64 68 68 64 56 56 64 64 68 48 36 32 20 12 8 8 8 0 0 0 0 0 0 0 0 8 12 20 20 20 12 12 20 20 20 12 12 12 8 8 8 8 0 0 0 0 8 8 0 8 8 8 8 8 8 8 8 8 8 8 20 20 12 8 8 8 0 0 0 0 0 0 0 0 0 0 0 0 0 0 0 0 0 0 0
44 56 64 68 76 68 68 64 64 56 56 56 48 36 24 8 12 24 48 76 80 76 64 48 44 48 48 36 32 20 12 12 12 12 12 12 12 12 12 8 8 8 8 12 24 36 24 24 24 24 24 24 24 24 20 20 20 20 12 12 8 8 8 8 8 8 8 12 12 12 12 8 12 12 12 12 20 24 24 24 20 12 8 8 8 0 0 0 0 0 0 0 0 0 0 0 0 0 8 12 12 12 8
36 36 48 56 68 76 76 76 68 68 64 64 48 44 36 24 20 24 32 48 64 76 64 48 36 36 36 32 24 20 12 12 12 12 24 24 24 24 24 24 24 20 20 20 32 36 32 32 36 36 32 24 32 32 32 32 32 24 20 20 12 12 8 8 8 8 20 20 20 20 12 20 20 20 20 24 32 32 24 20 20 12 12 12 8 8 0 0 0 0 0 0 0 0 0 0 0 0 8 12 20 20 20
36 36 36 36 44 48 64 76 68 68 64 56 44 36 24 20 24 36 44 44 48 56 64 48 36 24 24 24 20 20 20 20 20 24 32 32 32 32 36 36 32 24 12 12 24 32 36 44 44 44 44 36 36 36 36 44 44 36 32 24 20 20 12 12 12 12 12 12 20 20 12 20 20 24 24 32 24 20 12 12 8 8 8 12 8 8 0 0 0 0 0 0 0 0 0 0 0 0 0 8 12 20 24
44 44 44 44 36 36 36 56 64 64 56 48 44 36 32 24 36 48 44 44 36 32 36 36 32 24 24 32 32 32 32 24 32 32 36 32 32 36 36 36 36 32 24 32 36 44 48 48 48 56 56 48 44 44 44 44 44 36 32 24 24 20 20 12 20 20 20 20 20 20 20 24 20 20 20 20 8 0 0 0 0 0 0 0 0 0 0 0 0 0 0 0 0 0 0 0 0 8 8 12 20 20 20
48 48 48 48 44 44 32 44 48 48 56 56 56 56 48 48 48 44 44 36 32 24 20 32 24 20 24 36 44 44 36 32 32 32 32 32 32 32 36 32 32 32 44 56 64 56 56 56 56 56 56 48 48 48 48 48 44 36 32 32 24 20 20 12 12 20 24 12 12 12 20 20 12 8 8 0 0 0 0 0 0 0 0 0 0 0 0 0 0 0 0 0 0 0 0 0 0 8 20 24 24 24 24
48 56 56 56 56 48 44 44 44 48 64 68 68 64 64 56 48 44 44 36 32 24 20 48 44 32 36 44 48 48 44 32 32 36 36 36 36 36 32 36 44 48 56 64 64 64 56 56 48 36 36 32 32 32 44 36 36 44 36 32 24 20 12 8 8 8 12 8 0 8 12 8 0 0 0 0 0 0 0 0 0 0 0 0 0 0 0 0 0 0 0 0 0 0 0 0 0 0 12 20 32 36 32
48 56 64 68 68 64 56 44 32 24 48 48 48 48 44 48 48 48 44 44 44 44 56 64 56 64 68 68 64 56 48 44 44 44 44 48 48 44 36 56 64 68 64 56 56 48 44 44 32 20 20 12 8 8 20 20 24 32 32 32 20 12 8 8 0 0 8 0 0 0 0 0 0 0 0 0 0 0 0 0 0 0 0 0 0 0 0 0 0 0 0 0 0 0 0 0 0 0 0 8 20 32 44
20 32 76 76 76 76 64 44 24 12 12 24 24 20 12 20 24 36 44 44 48 64 80 68 68 76 88 64 44 36 44 56 36 20 20 20 20 20 24 56 56 48 48 44 36 32 24 24 20 20 20 20 12 8 0 20 32 32 24 20 12 8 8 0 8 8 0 0 0 0 0 0 0 0 0 0 0 0 0 0 0 0 0 0 0 0 0 0 0 0 0 0 0 0 0 0 0 0 0 8 24 44 56
8 24 68 68 68 64 48 36 32 24 20 20 12 8 8 8 12 12 20 32 44 56 56 48 56 64 76 48 24 8 12 24 12 0 0 0 0 0 0 36 36 24 24 20 12 8 8 0 8 20 32 24 32 36 32 32 32 24 20 12 8 0 0 0 0 0 0 0 0 0 0 0 0 0 0 0 0 0 0 0 0 0 0 0 0 0 0 0 0 0 0 0 0 0 0 0 0 0 0 12 32 48 64
20 24 36 48 48 44 44 36 32 24 20 20 20 12 12 12 12 20 24 24 24 24 36 36 32 32 32 32 20 8 8 0 0 0 0 0 0 0 0 20 12 8 0 0 0 0 0 0 0 8 12 32 44 44 12 8 8 8 8 0 0 0 0 0 0 0 0 0 0 0 0 0 0 0 0 0 0 0 0 0 0 0 0 0 0 0 0 0 0 0 0 0 0 0 0 0 0 0 0 0 8 12 24
24 24 24 36 44 44 32 32 32 24 20 24 24 24 24 24 24 24 32 32 20 20 56 36 32 20 20 20 12 8 0 0 0 0 0 0 0 0 0 0 0 0 0 0 0 0 0 0 0 0 0 8 12 8 0 0 0 0 0 0 0 0 0 0 0 0 0 0 0 0 0 0 0 0 0 0 0 0 0 0 0 0 0 0 0 0 0 0 0 0 0 0 0 0 0 0 0 0 0 0 0 0 0
24 20 12 24 24 24 32 32 32 32 32 32 32 32 36 36 32 32 32 32 24 24 36 32 24 20 12 12 8 0 0 0 0 0 0 0 0 0 0 0 0 0 0 0 0 0 0 0 0 0 0 0 0 0 0 0 0 0 0 0 0 0 0 0 0 0 0 0 0 0 0 0 0 0 0 0 0 0 0 0 0 0 0 0 0 0 0 0 0 0 0 0 0 0 0 0 0 0 0 0 0 0 0
20 12 0 32 32 32 36 36 36 36 32 32 36 36 36 32 32 32 32 32 32 24 20 12 12 8 0 0 0 0 0 0 0 0 0 0 0 0 0 0 0 0 0 0 0 0 0 0 0 0 0 0 0 0 0 0 0 0 0 0 0 0 0 0 0 0 0 0 0 0 0 0 0 0 0 0 0 0 0 0 0 0 0 0 0 0 0 0 0 0 0 0 0 0 0 0 0 0 0 0 0 0 0
24 20 12 36 44 48 48 56 44 36 32 32 32 32 36 36 36 36 36 20 8 8 0 0 0 0 0 0 0 0 0 20 12 0 0 0 0 0 0 0 0 0 0 0 0 0 0 0 0 8 12 12 12 8 8 0 0 0 0 0 0 0 0 0 0 0 0 0 0 0 0 0 0 0 0 0 0 0 0 0 0 0 0 0 0 0 0 0 0 0 0 0 0 0 0 0 0 0 0 0 0 0 0
32 24 20 20 44 64 68 64 44 24 20 12 8 0 0 0 0 0 0 0 0 0 0 0 0 0 0 0 0 0 0 0 0 0 0 0 0 0 0 0 0 0 0 0 0 0 0 0 0 0 8 20 20 12 12 8 0 0 0 0 0 0 0 0 0 0 0 0 0 0 0 0 0 0 0 0 0 0 0 0 0 0 0 0 0 0 0 0 0 0 0 0 0 0 0 0 0 0 0 0 0 0 0
24 20 20 20 44 68 76 76 36 8 0 0 0 0 0 0 0 0 0 0 0 0 0 0 0 0 0 0 0 0 0 20 12 0 0 0 0 0 0 0 0 0 0 0 0 0 0 0 0 0 8 20 20 20 12 12 8 0 0 0 0 0 0 0 0 0 0 0 0 0 0 0 0 0 0 0 0 0 0 0 0 0 0 0 0 0 0 0 0 0 0 0 0 0 0 0 0 0 0 0 0 0 0
12 12 20 24 44 64 68 68 56 32 0 0 0 0 0 0 0 0 0 0 0 0 0 0 0 0 0 0 0 0 0 24 12 0 0 0 0 0 0 0 0 0 0 0 0 0 0 0 0 0 8 12 20 24 20 20 12 8 0 8 8 0 0 0 0 0 0 0 0 0 0 0 0 0 0 0 0 0 0 0 0 0 0 0 0 0 0 0 0 0 0 0 0 0 0 0 0 0 0 0 0 0 0
32 44 48 48 32 20 48 56 56 44 0 0 0 0 0 0 0 0 0 0 0 0 0 0 0 0 0 0 0 0 0 0 12 20 0 0 0 0 0 0 0 0 0 0 0 0 0 0 0 0 0 8 12 20 24 20 20 20 12 12 12 12 8 0 0 0 0 0 0 0 0 0 0 0 0 0 0 0 0 0 0 0 0 0 0 0 0 0 0 0 0 0 0 0 0 0 0 0 0 0 0 0 0
44 48 64 56 32 12 8 36 56 44 0 0 0 0 0 0 0 0 0 0 0 0 0 0 0 0 0 0 0 0 0 0 0 0 0 0 0 0 8 0 0 0 0 0 0 0 0 0 0 0 0 0 8 20 32 24 24 24 24 24 24 20 20 12 8 8 0 0 0 0 0 0 0 0 0 0 0 0 0 0 0 0 0 0 0 0 0 0 0 0 0 0 0 0 0 0 0 0 0 0 0 0 0
48 56 64 64 48 44 32 32 36 36 20 0 0 0 0 0 0 0 0 0 0 0 0 0 0 0 0 0 0 0 0 0 0 12 44 12 12 20 8 8 0 0 0 0 0 0 0 0 0 0 0 0 0 8 20 24 24 32 32 32 32 24 24 20 20 12 8 0 0 0 0 0 0 0 0 0 0 0 0 0 0 0 0 0 0 0 0 0 0 0 0 0 0 0 0 0 0 0 0 0 0 0 0
48 48 48 64 68 64 20 32 36 36 48 12 0 0 0 0 0 0 0 0 0 0 0 0 0 0 0 0 0 0 0 0 0 12 44 24 32 32 8 0 0 0 0 0 0 0 0 0 0 0 0 0 0 0 8 20 24 24 24 24 24 24 24 24 24 24 20 12 8 8 8 0 0 0 0 0 0 0 0 0 0 0 0 0 0 0 0 0 0 0 0 0 0 0 0 0 0 0 0 0 0 0 0
44 48 48 64 76 68 36 24 24 36 36 20 8 0 0 0 0 0 0 0 0 0 0 0 0 0 0 0 0 0 0 0 0 8 12 12 8 12 32 8 8 8 0 0 0 0 0 0 0 0 0 0 0 0 0 12 12 12 8 12 12 20 24 32 32 32 24 20 12 12 20 8 0 0 0 0 0 0 0 0 0 0 0 0 0 0 0 0 0 0 0 0 0 0 0 0 0 0 0 0 0 0 0
36 44 44 44 56 64 64 56 44 32 32 32 20 0 0 0 0 0 0 0 0 0 0 0 0 0 0 0 0 0 0 0 8 12 20 12 8 8 8 0 0 0 8 0 0 0 0 0 0 0 0 0 0 0 0 0 8 8 0 8 8 12 24 36 44 44 32 24 24 20 20 12 8 0 0 0 0 0 0 0 0 0 0 0 0 0 0 0 0 0 0 0 0 0 0 0 0 0 0 0 0 0 0
48 44 32 24 24 44 88 92 68 44 32 44 32 20 12 8 0 0 0 8 8 8 8 0 0 0 8 8 0 0 0 0 8 12 20 12 8 12 32 8 0 8 20 0 0 0 8 8 8 8 0 0 0 0 0 0 0 0 0 8 12 24 44 48 48 48 32 24 20 20 8 12 12 8 0 0 0 0 0 0 0 0 0 0 0 0 0 0 0 0 0 8 0 0 0 0 0 0 0 0 0 0 0